LEGION 3

Last updated on Sun Jun 21 2026 00:02:53 GMT+0000 (Coordinated Universal Time)

1 60452U 24146A 26171.42555762 .00003536 00000+0 19408-3 0 9998 2 60452 45.0028 13.1867 0008055 188.7532 171.3207 15.16059013102517
UTC large
Height (km)
Speed (km/s)
/
Latitude / Longitude
Inclination (degrees)
Orbital Period (minutes)
Azimuth
Elevation
Range (km)
Doppler Factor

Next 0 passes for location: London (51.5072 / 0.1276)

No passes found over London.
LEGION 3